LDPE-3A DEB, 55267

Orbit data source: Space-Track

LDPE-3A DEB, 55267 is space debris in GEO originally from a launch on Sun, 15 Jan 2023 UTC launched from the Air Force Eastern Test Range (AFETR). Debris objects in space refer to the collection of defunct objects orbiting the Earth. Examples of debris include non-operational satellites, rocket bodies, and fragments generated from explosions, collisions, or faulty payload assembly.

Not visible in the next 10 days
Identifier
55267, 2023-008E
Orbit
GEO
Country
Flag of USUS
Related business
Manufacturer
SpaceX
Mission
Spacecraft
Bus & Motor
Unknown
Mass
Unknown
Launch date (UTC)
2023-01-15 (3 years ago)
Launch vehicle
Unknown
Launch site
Air Force Eastern Test Range (AFETR)
Object type
Payload
Rocket body
Debris
Shape & HBR
Unknown shape, 1.1 m
Radar Cross Section
RCS unknown

Expand to show TLE details & history
Last TLE update: 16 hours ago

TLE from 16 hours ago
0 LDPE-3A DEB
1 55267U 23008E   26105.27468412 -.00000028  00000-0  00000-0 0  9997
2 55267   2.9993  78.8556 0003758 200.7258 159.5316  1.02216874  7250
Epoch: 2026-04-15T06:35Z
TLE epoch observation values (Epoch: 2026-04-15T06:35:32.707Z)
Latitude
-0°
Longitude
136.79423°
Altitude
35,264.064 km
Speed
3.093 km/s
True Right ascension
05h 16m 28s
True Declination
0° 00' 00"
Sunlit
Object was in daylight at epoch
Visualization orbit readout
Latitude
Unknown
Longitude
Unknown
Altitude
Unknown
Speed
Unknown
Apparent Right ascension
Unknown
Apparent Declination
Unknown
Sunlit
N/A
Visualization observer readout
Local Sidereal Time
04:45:07
Azimuth
Unknown
Elevation
Unknown
Doppler factor
Unknown
Orbital elements
Apogee altitude
35,266.705 km
Perigee altitude
35,235.416 km
Semi-major axis
41,629.197 km
Eccentricity
0.00038
Inclination
2.9993°
RAAN
78.8556°
Arg. of periapsis
200.7258°
True anomaly
159.54665°
Mean anomaly
159.5316°
Eccentric anomaly
159.53913°
Mean motion
0.25553 °/min
Orbital period
1,408.82 mins
BSTAR
0
Loading maneuver chart data...
Computing Atmospheric mass density...
Loading historical data...
Loading historical data...
Loading historical data...
Loading historical data...
Loading historical data...
Loading historical data...
Loading historical data...
Other satellites on launch #8 in the year 2023 (2023-01-15 UTC)

Documentation

Showing up to 5 results
|